Location: C.E.K. Mees Observatory
(42.7003°N, 77.4088°W)
Time: 13:03:36
(UTC-04:00)

OTV 5 (USA 277) - Pass Details

Date: 10 October 2017
Orbit: 404 x 417 km, 43.0° (Epoch: 07 September)

Event Time Altitude Azimuth Distance (km) Brightness Sun altitude
Rises 19:42:39 0° 229° (SW) 2,344 ? -13.2°
Reaches altitude 10° 19:44:53 10° 219° (SW) 1,483 ? -13.6°
Maximum altitude 19:47:55 32° 154° (SSE) 744 ? -14.2°
Enters shadow 19:48:51 26° 121° (ESE) 846 ? -14.4°
